{"data":{"norad_id":52664,"epoch":"2026-05-25T01:19:11.301024Z","epoch_age_seconds":66922,"freshness":"FRESH","line1":"1 52664U 22053J   26145.05499191 -.00000041  00000+0  15499-4 0  9998","line2":"2 52664  53.2132 171.3037 0001100  88.0078 272.1040 15.08836833222575","mean_motion":15.08836833,"eccentricity":0.00011,"inclination_deg":53.2132,"raan_deg":171.3037,"arg_perigee_deg":88.0078,"mean_anomaly_deg":272.104,"bstar":1.5499e-5,"rev_number":22257,"period_min":95.437754998124,"perigee_km":538.99210132544,"apogee_km":540.51403714067,"semimajor_km":6917.8900692331,"source":"CELESTRAK","updated_at":"2026-05-25T13:38:17.230731Z"}}